Location: Juzet
(42.9779°N, 0.7597°E)
Time: 18:13:40
(UTC+00:00)

Cosmos 1666 - Pass Details

Date: 14 July 2020
Orbit: 497 x 521 km, 82.5° (Epoch: 12 August)

Event Time Altitude Azimuth Distance (km) Brightness Sun altitude
Exits shadow 02:48:11 27° 243° (WSW) 1,012 3.6 -15.0°
Maximum altitude 02:49:28 34° 283° (WNW) 848 3.5 -14.9°
Drops below altitude 10° 02:52:57 10° 350° (N) 1,723 5.9 -14.5°
Sets 02:55:12 0° 360° (N) 2,609 7.1 -14.2°
